{"data":{"norad_id":68355,"intl_designator":"2026-060F","name":"CENTISPACE-2 S6","alt_names":[],"object_type":"PAYLOAD","status":"ACTIVE","operator":null,"country":"PRC","launch_date":"2026-03-22","launch_site_code":"YSLA","launch_vehicle":null,"mission":null,"orbit_class":"UNKNOWN","rcs_meters":null,"size_class":null,"mass_kg":null,"dimensions":null,"purposes":[],"wikipedia_slug":null,"has_3d_model":false,"image_url":null,"decayed_at":null,"tle_current":{"epoch":"2026-05-25T09:08:23.701632Z","epoch_age_seconds":35310,"freshness":"FRESH","line1":"1 68355U 26060F   26145.38082988 -.00000043  00000+0  25184-4 0  9996","line2":"2 68355  54.9749 129.0737 0010813  83.0655 277.1573 14.72899039  9403","mean_motion":14.72899039,"eccentricity":0.0010813,"inclination_deg":54.9749,"raan_deg":129.0737,"arg_perigee_deg":83.0655,"mean_anomaly_deg":277.1573,"bstar":2.5184e-5,"rev_number":940,"period_min":97.76637514664,"perigee_km":644.22691880886,"apogee_km":659.42992202706,"semimajor_km":7029.965420418,"source":"CELESTRAK","updated_at":"2026-05-25T13:38:07.761672Z"}}}